DateTime,F1_A11,F1_S11,BsB_S11,BsG_S11,BsR_S11,BbsB_S11,BbsG_S11,BbsR_S11,BaB_A11,BaG_A11,BaR_A11,T_S11,U_S11,P_S11,T1_A11
2016-05-13T00:00:00Z,0000380,20000600,,,,,,,,,,26.0,04.3,0675.3,34.6
2016-05-13T00:01:00Z,0000380,20000600,,,,,,,,,,26.0,04.3,0675.3,34.6
2016-05-13T00:02:00Z,0000380,20000600,,,,,,,,,,26.0,04.3,0675.3,34.6
2016-05-13T00:03:00Z,0000380,60000600,,,,,,,,,,26.0,04.3,0675.3,34.6
2016-05-13T00:04:00Z,0000380,40000600,0000.77,0000.37,0000.82,-000.25,0000.26,-000.02,0000.02,0000.32,0000.53,26.0,04.3,0676.0,34.6
2016-05-13T00:05:00Z,0000380,00000600,0000.57,0000.37,0000.59,-000.09,0000.02,-000.05,-000.01,0000.02,-000.38,26.0,04.3,0676.1,34.6
2016-05-13T00:06:00Z,0000380,00000600,0001.06,0000.46,0000.60,0000.17,0000.26,0000.03,-000.02,-000.01,0000.12,26.0,04.2,0676.1,34.6
2016-05-13T00:07:00Z,0000380,00000600,0001.31,0000.41,0000.34,0000.62,0000.08,-000.02,0000.24,0000.12,0000.08,26.0,04.3,0676.1,34.6
2016-05-13T00:08:00Z,0000380,00000600,0000.22,0000.15,0000.55,0000.64,0000.23,0000.20,0000.08,0000.27,-000.08,26.1,04.3,0676.1,34.6
2016-05-13T00:09:00Z,0000380,00000600,0001.11,0000.45,0000.42,0000.47,0000.03,-000.09,0000.27,-000.09,0000.31,26.1,04.2,0676.1,34.6
2016-05-13T00:10:00Z,0000380,00000600,0001.08,0000.10,0000.11,0000.25,-000.28,-000.16,0000.00,0000.19,-000.23,26.1,04.3,0676.1,34.6
2016-05-13T00:11:00Z,0000380,00000600,0000.55,0000.15,-000.11,-000.08,0000.30,-000.19,-000.08,-000.15,0000.53,26.0,04.3,0676.1,34.6
2016-05-13T00:12:00Z,0000380,00000600,0000.60,0000.02,0000.07,0000.03,-000.05,0000.08,0000.46,0000.25,-000.37,26.0,04.3,0676.1,34.6
2016-05-13T00:13:00Z,0000380,00000600,0000.02,-000.42,0000.71,0000.58,-000.03,-000.11,-000.13,-000.00,0000.17,26.1,04.3,0676.1,34.6
2016-05-13T00:14:00Z,0000380,00000600,-000.44,0000.29,-000.04,0000.81,0000.16,0000.16,0000.05,0000.01,-000.29,26.0,04.3,0676.1,34.6
2016-05-13T00:15:00Z,0000380,00000600,0000.49,0000.30,0000.47,0000.34,-000.06,0000.03,0000.28,0000.21,0000.28,26.0,04.3,0676.1,34.6
2016-05-13T00:16:00Z,0000380,00000600,0000.95,0000.10,0000.10,0000.55,-000.28,0000.42,0000.07,0000.28,0000.46,26.0,04.3,0676.1,34.6
2016-05-13T00:17:00Z,0000380,00000600,0000.15,0000.00,0000.74,0000.39,0000.09,0000.16,-000.23,-000.23,-000.05,26.0,04.4,0676.1,34.6
2016-05-13T00:18:00Z,0000380,00000600,0000.41,0000.02,-000.16,0000.20,-000.12,0000.16,-000.02,0000.03,-000.01,26.0,04.4,0676.1,34.6
2016-05-13T00:19:00Z,0000380,00000600,0000.65,-000.24,0000.36,-000.16,0000.11,0000.16,0000.20,0000.15,-000.04,26.0,04.4,0676.1,34.6
2016-05-13T00:20:00Z,0000380,00000600,0000.38,-000.37,0000.00,0000.67,-000.25,-000.33,0000.27,-000.05,0000.09,26.0,04.4,0676.1,34.6
2016-05-13T00:21:00Z,0000380,00000600,0000.42,0000.21,0000.35,0000.22,-000.19,-000.33,0000.02,0000.17,0000.13,26.0,04.5,0676.1,34.6
2016-05-13T00:22:00Z,0000380,00000600,0000.94,0000.02,0000.40,0000.48,0000.17,0000.22,0000.10,0000.08,-000.04,26.1,04.4,0676.1,34.6
2016-05-13T00:23:00Z,0000380,00000600,0000.20,0000.37,0000.06,-000.12,0000.05,0000.11,0000.09,0000.10,0000.13,26.1,04.5,0676.1,34.6
2016-05-13T00:24:00Z,0000380,00000600,0000.57,-000.10,0000.75,0000.89,-000.06,-000.36,-000.05,0000.07,0000.14,26.1,04.4,0676.1,34.6
2016-05-13T00:25:00Z,0000380,00000600,0001.00,-000.57,0000.00,0000.11,0000.45,0000.27,0000.16,0000.12,-000.19,26.1,04.4,0676.1,34.6
2016-05-13T00:26:00Z,0000380,00000600,-000.07,0000.67,0000.49,0000.14,-000.16,0000.31,0000.11,-000.07,0000.32,26.1,04.4,0676.1,34.6
2016-05-13T00:27:00Z,0000380,00000600,0000.24,0000.23,0000.39,0000.39,0000.20,0000.02,0000.04,0000.13,-000.12,26.1,04.5,0676.1,34.6
2016-05-13T00:28:00Z,0000380,00000600,0000.88,0000.48,-000.16,0000.83,0000.31,0000.11,0000.14,0000.20,0000.23,26.1,04.5,0676.0,34.6
2016-05-13T00:29:00Z,0000380,00000600,0000.78,-000.16,0000.23,0000.37,0000.20,0000.36,-000.01,-000.13,0000.11,26.0,04.5,0676.0,34.6
2016-05-13T00:30:00Z,0000380,00000600,0000.61,-000.07,0000.36,0000.19,0000.19,0000.00,0000.07,0000.11,-000.15,26.0,04.4,0676.1,34.6
2016-05-13T00:31:00Z,0000380,00000600,0000.40,0000.12,0000.18,0000.31,0000.09,-000.03,0000.15,-000.08,-000.13,26.1,04.4,0676.0,34.6
2016-05-13T00:32:00Z,0000380,00000600,0000.35,-000.10,0000.67,-000.72,-000.34,0000.20,-000.02,0000.28,0000.51,26.0,04.4,0676.0,34.6
2016-05-13T00:33:00Z,0000380,00000600,-000.02,-000.05,0000.61,0000.58,0000.14,-000.13,0000.18,-000.10,-000.36,26.0,04.4,0676.0,34.6
2016-05-13T00:34:00Z,0000380,00000600,0000.75,0000.30,0000.17,0001.09,0000.20,-000.09,0000.05,0000.13,0000.22,26.0,04.4,0676.0,34.6
2016-05-13T00:35:00Z,0000380,00000600,0000.77,0000.57,0000.15,0000.16,0000.20,0000.17,-000.04,0000.11,-000.02,26.0,04.4,0676.0,34.6
2016-05-13T00:36:00Z,0000380,00000600,0000.85,-000.03,0000.04,0000.39,0000.12,0000.06,0000.17,0000.05,-000.11,26.0,04.4,0676.0,34.6
2016-05-13T00:37:00Z,0000380,00000600,0000.09,0000.34,-000.07,0000.02,0000.34,0000.08,-000.01,-000.04,-000.04,26.0,04.4,0676.0,34.6
2016-05-13T00:38:00Z,0000380,00000600,0000.65,0000.47,0000.09,0000.06,0000.31,0000.03,-000.06,0000.17,-000.09,26.0,04.4,0676.0,34.6
2016-05-13T00:39:00Z,0000380,00000600,0000.30,0000.02,0000.19,-000.14,-000.16,-000.05,0000.20,0000.13,0000.43,26.0,04.4,0676.0,34.6
2016-05-13T00:40:00Z,0000380,00000600,0000.60,-000.24,0000.60,0000.48,-000.40,-000.09,0000.08,-000.06,0000.08,26.0,04.4,0676.0,34.6
2016-05-13T00:41:00Z,0000380,00000600,0000.56,0000.21,-000.02,0000.62,0000.37,0000.06,0000.07,0000.07,-000.09,26.1,04.4,0676.0,34.6
2016-05-13T00:42:00Z,0000380,00000600,0000.34,-000.21,0000.04,-000.34,-000.08,0000.14,-000.15,0000.02,-000.04,26.1,04.3,0676.0,34.6
2016-05-13T00:43:00Z,0000380,00000600,0000.30,-000.14,0000.02,0000.55,-000.14,-000.03,0000.13,0000.06,-000.09,26.1,04.3,0676.0,34.6
2016-05-13T00:44:00Z,0000380,00000600,0000.35,-000.40,0000.28,0000.78,-000.09,0000.16,0000.01,0000.07,0000.15,26.1,04.2,0676.0,34.6
2016-05-13T00:45:00Z,0000380,00000600,0000.28,-000.09,0000.36,0000.03,0000.08,0000.17,0000.09,-000.03,-000.13,26.1,04.2,0676.0,34.6
2016-05-13T00:46:00Z,0000380,00000600,-000.12,0000.81,0000.90,0000.53,-000.11,0000.14,0000.12,0000.01,0000.20,26.1,04.2,0676.0,34.6
2016-05-13T00:47:00Z,0000380,00000600,0000.01,-000.20,0000.53,0000.37,-000.09,-000.08,0000.17,-000.10,0000.06,26.1,04.1,0676.1,34.6
2016-05-13T00:48:00Z,0000380,00000600,0000.66,0000.20,0000.26,0000.22,-000.45,0000.42,-000.14,0000.13,0000.23,26.0,04.2,0676.1,34.6
2016-05-13T00:49:00Z,0000380,00000600,0001.30,-000.25,0000.37,0000.34,-000.02,-000.13,0000.13,0000.16,0000.02,26.0,04.2,0676.1,34.6
2016-05-13T00:50:00Z,0000380,00000600,0000.46,-000.04,0000.16,0000.56,0000.11,0000.28,0000.07,0000.02,-000.03,26.1,04.2,0676.1,34.6
2016-05-13T00:51:00Z,0000380,00000600,0000.08,0000.20,0000.41,-000.06,0000.11,-000.09,0000.16,0000.22,0000.06,26.1,04.2,0676.1,34.6
2016-05-13T00:52:00Z,0000380,00000600,0000.40,-000.02,0000.61,0000.72,0000.20,-000.08,-000.14,-000.08,-000.35,26.1,04.1,0676.1,34.6
2016-05-13T00:53:00Z,0000380,00000600,0000.65,0000.43,0000.06,0000.61,0000.12,-000.11,0000.04,-000.09,0000.24,26.0,04.2,0676.1,34.6
2016-05-13T00:54:00Z,0000380,00000600,0001.04,0000.58,0000.35,0000.12,-000.20,0000.11,0000.10,0000.02,-000.03,26.0,04.1,0676.1,34.6
2016-05-13T00:55:00Z,0000380,00000600,0000.32,-000.22,0000.22,0000.73,0000.00,0000.17,0000.06,0000.16,0000.06,26.0,04.0,0676.1,34.6
2016-05-13T00:56:00Z,0000380,00000600,-000.08,0000.44,0000.71,0000.50,-000.39,-000.09,-000.07,-000.10,0000.10,26.0,04.0,0676.1,34.6
2016-05-13T00:57:00Z,0000380,40000600,,,,,,,,,,,,0675.9,34.6
2016-05-13T00:58:00Z,0000380,60000600,,,,,,,,,,26.0,04.1,0675.2,34.6
2016-05-13T00:59:00Z,0000380,20000600,,,,,,,,,,26.0,04.1,0675.2,34.6
2016-05-13T01:00:00Z,0000380,20000600,,,,,,,,,,26.0,04.1,0675.2,34.6
2016-05-13T01:01:00Z,0000380,20000600,,,,,,,,,,26.0,04.1,0675.2,34.6
2016-05-13T01:02:00Z,0000380,20000600,,,,,,,,,,26.0,04.1,0675.2,34.6
2016-05-13T01:03:00Z,0000380,60000600,,,,,,,,,,26.0,04.1,0675.2,34.6
2016-05-13T01:04:00Z,0000380,40000600,0000.95,0000.24,0000.18,0000.83,-000.02,-000.38,-000.03,0000.02,0000.10,26.0,04.0,0676.0,34.6
2016-05-13T01:05:00Z,0000380,00000600,0001.29,0000.11,0000.20,-000.33,0000.16,0000.36,-000.02,0000.10,0000.17,26.1,04.0,0676.0,34.6
2016-05-13T01:06:00Z,0000380,00000600,0001.07,0000.63,0000.22,-000.30,0000.36,-000.25,0000.02,-000.16,-000.28,26.1,03.9,0676.0,34.6
2016-05-13T01:07:00Z,0000380,00000600,0000.40,0000.61,-000.08,0000.12,0000.08,-000.14,0000.06,0000.16,0000.35,26.2,03.8,0676.0,34.6
2016-05-13T01:08:00Z,0000380,00000600,0000.60,0000.23,0000.42,0000.37,-000.42,0000.02,0000.08,-000.07,-000.25,26.2,03.8,0676.0,34.6
2016-05-13T01:09:00Z,0000380,00000600,0000.98,0000.15,-000.16,-000.11,0000.28,-000.23,0000.03,0000.10,-000.21,26.2,03.7,0676.0,34.6
2016-05-13T01:10:00Z,0000380,00000600,0000.82,0000.10,0000.35,0000.06,0000.26,-000.20,0000.13,-000.09,0000.40,26.2,03.6,0675.9,34.6
2016-05-13T01:11:00Z,0000380,00000600,0001.24,0000.47,0000.02,0000.30,0000.00,-000.13,-000.04,0000.10,-000.25,26.2,03.6,0675.9,34.6
2016-05-13T01:12:00Z,0000380,00000600,0001.16,0000.47,0000.01,-000.23,0000.12,0000.28,0000.25,0000.08,0000.21,26.2,03.6,0675.9,34.6
2016-05-13T01:13:00Z,0000380,00000600,0001.28,0000.64,-000.47,0000.64,-000.37,-000.34,0000.01,0000.18,-000.14,26.2,03.7,0675.9,34.6
2016-05-13T01:14:00Z,0000380,00000600,0001.06,0000.42,0000.52,-000.11,0000.44,0000.06,0000.20,0000.00,0000.21,26.2,03.6,0675.9,34.6
2016-05-13T01:15:00Z,0000380,00000600,0000.96,0000.32,0000.34,0000.59,-000.03,0000.09,-000.32,0000.00,0000.13,26.2,03.6,0675.9,34.7
2016-05-13T01:16:00Z,0000380,00000600,0000.62,0000.71,0000.14,0000.09,-000.06,0000.22,0000.32,-000.00,-000.19,26.1,03.5,0675.9,34.7
2016-05-13T01:17:00Z,0000380,00000600,0000.40,0000.53,0000.26,0000.73,0000.36,-000.16,-000.09,-000.04,-000.17,26.1,03.6,0675.9,34.7
2016-05-13T01:18:00Z,0000380,00000600,0000.72,0000.31,-000.67,0000.02,0000.26,0000.09,-000.14,-000.07,0000.01,26.1,03.6,0675.9,34.7
2016-05-13T01:19:00Z,0000380,00000600,0001.31,0001.11,-000.10,0000.41,0000.03,-000.25,0000.38,0000.10,0000.30,26.1,03.6,0675.9,34.7
2016-05-13T01:20:00Z,0000380,00000600,0000.74,0000.08,-000.15,0000.48,0000.36,-000.05,-000.12,0000.24,0000.35,26.1,03.5,0675.9,34.7
2016-05-13T01:21:00Z,0000380,00000600,0000.72,0000.06,0000.29,-000.12,0000.25,0000.08,0000.11,-000.23,-000.48,26.1,03.6,0675.9,34.7
2016-05-13T01:22:00Z,0000380,00000600,0000.58,0000.61,-000.12,-000.20,0000.06,-000.17,-000.17,0000.17,0000.40,26.1,03.5,0675.9,34.7
2016-05-13T01:23:00Z,0000380,00000600,0001.44,-000.01,0000.14,-000.03,0000.19,-000.23,0000.19,0000.05,-000.13,26.1,03.6,0675.8,34.7
2016-05-13T01:24:00Z,0000380,00000600,0000.38,0000.73,-000.16,0000.38,0000.34,-000.03,0000.01,0000.18,0000.22,26.2,03.6,0675.8,34.7
2016-05-13T01:25:00Z,0000380,00000600,0001.15,0000.30,0000.21,0000.34,0000.08,-000.03,0000.04,0000.08,0000.08,26.2,03.7,0675.8,34.7
2016-05-13T01:26:00Z,0000380,00000600,0001.00,0000.71,0000.32,0000.45,-000.08,-000.17,0000.08,-000.02,-000.09,26.2,03.7,0675.8,34.7
2016-05-13T01:27:00Z,0000380,00000600,0001.06,0000.50,-000.07,0000.81,0000.26,-000.52,0000.11,-000.04,-000.01,26.2,03.6,0675.8,34.7
2016-05-13T01:28:00Z,0000380,00000600,0000.50,0000.43,0000.21,0000.02,0000.11,0000.06,0000.25,0000.17,-000.19,26.2,03.7,0675.8,34.7
2016-05-13T01:29:00Z,0000380,00000600,0000.59,0000.03,0000.25,-000.08,0000.39,0000.17,-000.02,0000.16,0000.34,26.2,03.6,0675.8,34.7
2016-05-13T01:30:00Z,0000380,00000600,0000.86,0001.16,-000.49,0000.31,0000.12,-000.48,0000.13,-000.01,-000.09,26.2,03.7,0675.8,34.7
2016-05-13T01:31:00Z,0000380,00000600,0000.89,0000.15,0000.09,0000.42,-000.30,0000.02,-000.04,0000.04,-000.22,26.2,03.7,0675.8,34.7
2016-05-13T01:32:00Z,0000380,00000600,0000.66,0000.23,0000.04,0000.19,0000.23,-000.34,0000.29,0000.07,0000.31,26.2,03.7,0675.8,34.7
2016-05-13T01:33:00Z,0000380,00000600,0000.78,0000.61,0000.01,-000.28,-000.08,-000.28,-000.12,-000.03,-000.03,26.1,03.7,0675.8,34.7
2016-05-13T01:34:00Z,0000380,00000600,0000.04,0000.73,0000.26,0000.27,-000.30,-000.19,0000.04,0000.06,-000.11,26.2,03.7,0675.8,34.7
2016-05-13T01:35:00Z,0000380,00000600,0001.31,0000.27,-000.13,0000.19,-000.36,-000.03,0000.11,-000.05,0000.12,26.1,03.7,0675.8,34.7
2016-05-13T01:36:00Z,0000380,00000600,0001.41,0000.23,-000.16,0000.20,0000.12,-000.11,0000.11,0000.22,0000.27,26.1,03.7,0675.8,34.7
2016-05-13T01:37:00Z,0000380,00000600,0000.77,0000.80,0000.15,-000.11,0000.22,-000.11,0000.09,-000.09,0000.32,26.1,03.5,0675.8,34.7
2016-05-13T01:38:00Z,0000380,00000600,0001.80,0000.12,-000.20,0000.03,0000.03,0000.16,-000.03,0000.06,-000.04,26.1,03.5,0675.8,34.7
2016-05-13T01:39:00Z,0000380,00000600,0000.56,0000.23,0000.06,-000.09,0000.19,-000.02,0000.10,0000.00,-000.44,26.1,03.5,0675.8,34.7
2016-05-13T01:40:00Z,0000380,00000600,0000.59,0000.56,0000.07,0000.06,0000.02,-000.33,0000.00,-000.02,0000.21,26.1,03.4,0675.8,34.7
2016-05-13T01:41:00Z,0000380,00000600,0000.67,0000.30,0000.32,0000.53,0000.17,-000.19,-000.05,0000.03,-000.08,26.1,03.4,0675.8,34.7
2016-05-13T01:42:00Z,0000380,00000600,0001.09,0000.65,0000.18,0000.19,0000.36,-000.16,0000.08,0000.15,0000.24,26.1,03.4,0675.8,34.7
2016-05-13T01:43:00Z,0000380,00000600,0000.41,0001.01,-000.12,0000.50,-000.11,-000.05,0000.26,-000.04,-000.11,26.1,03.4,0675.8,34.7
2016-05-13T01:44:00Z,0000380,00000600,0001.07,0000.90,0000.66,0000.30,0000.03,-000.34,-000.32,0000.10,-000.07,26.1,03.5,0675.8,34.7
2016-05-13T01:45:00Z,0000380,00000600,0001.25,0000.13,0000.14,0000.64,0000.40,-000.19,0000.09,-000.13,0000.26,26.2,03.4,0675.8,34.7
2016-05-13T01:46:00Z,0000380,00000600,0000.49,0000.65,-000.17,-000.20,0000.42,-000.05,-000.20,0000.09,-000.15,26.2,03.6,0675.7,34.7
2016-05-13T01:47:00Z,0000380,00000600,0001.70,0000.40,0000.18,0000.39,0000.06,-000.13,-000.01,0000.13,0000.14,26.2,03.6,0675.7,34.7
2016-05-13T01:48:00Z,0000380,00000600,0001.53,0000.37,0000.20,0000.91,0000.20,-000.44,0000.20,0000.28,0000.21,26.2,03.7,0675.7,34.7
2016-05-13T01:49:00Z,0000380,00000600,0000.67,0000.70,0000.51,0000.17,-000.17,-000.19,0000.06,-000.02,0000.17,26.2,03.8,0675.7,34.7
2016-05-13T01:50:00Z,0000380,00000600,0000.88,0000.51,-000.09,-000.05,-000.08,0000.06,0000.05,0000.09,-000.33,26.2,03.8,0675.7,34.7
2016-05-13T01:51:00Z,0000380,00000600,0001.55,0000.55,-000.11,0000.81,-000.14,-000.06,0000.09,-000.13,0000.24,26.2,03.8,0675.7,34.7
2016-05-13T01:52:00Z,0000380,00000600,0000.39,0000.45,0000.57,0000.36,0000.34,0000.05,0000.34,0000.16,-000.15,26.2,03.8,0675.7,34.7
2016-05-13T01:53:00Z,0000380,00000600,0000.09,0000.46,0000.00,0000.00,0000.16,-000.27,0000.02,0000.01,0000.18,26.2,03.8,0675.7,34.7
2016-05-13T01:54:00Z,0000380,00000600,0000.55,0000.58,0000.31,0000.02,0000.34,0000.11,0000.06,-000.06,-000.17,26.2,03.7,0675.7,34.7
2016-05-13T01:55:00Z,0000380,00000600,0001.16,0000.70,0000.33,0000.16,0000.00,-000.25,-000.00,0000.17,0000.15,26.2,03.6,0675.7,34.7
2016-05-13T01:56:00Z,0000380,00000600,0000.21,0000.65,0000.09,0000.17,0000.36,0000.22,-000.02,-000.05,0000.14,26.2,03.7,0675.7,34.7
2016-05-13T01:57:00Z,0000380,40000600,,,,,,,,,,,,0676.0,34.7
2016-05-13T01:58:00Z,0000380,60000600,,,,,,,,,,26.0,03.8,0674.8,34.7
2016-05-13T01:59:00Z,0000380,20000600,,,,,,,,,,26.0,03.8,0674.9,34.7
2016-05-13T02:00:00Z,0000380,20000600,,,,,,,,,,26.0,03.8,0674.9,34.6
2016-05-13T02:01:00Z,0000380,20000600,,,,,,,,,,26.0,03.8,0674.9,34.6
2016-05-13T02:02:00Z,0000380,20000600,,,,,,,,,,26.0,03.7,0674.9,34.6
2016-05-13T02:03:00Z,0000380,60000600,,,,,,,,,,26.0,03.6,0674.9,34.6
2016-05-13T02:04:00Z,0000380,40000600,0000.15,0000.05,-000.21,-000.02,-000.50,0000.16,-000.10,0000.07,0000.29,26.1,03.6,0675.6,34.6
2016-05-13T02:05:00Z,0000380,00000600,0000.79,0000.37,-000.33,-000.19,-000.12,0000.11,-000.01,0000.12,-000.39,26.2,03.5,0675.6,34.6
2016-05-13T02:06:00Z,0000380,00000600,0000.87,0000.69,-000.51,-000.11,-000.11,0000.23,0000.14,0000.01,0000.46,26.2,03.5,0675.6,34.6
2016-05-13T02:07:00Z,0000380,00000600,0000.38,0000.77,-000.18,0000.20,-000.28,0000.00,0000.02,-000.00,0000.07,26.2,03.5,0675.6,34.6
2016-05-13T02:08:00Z,0000380,00000600,-000.51,-000.02,-000.06,-000.11,-000.50,-000.05,0000.09,0000.07,-000.13,26.2,03.5,0675.6,34.6
2016-05-13T02:09:00Z,0000380,00000600,0000.27,0001.23,-000.06,0000.13,0000.09,0000.11,0000.07,-000.15,-000.16,26.2,03.4,0675.6,34.6
2016-05-13T02:10:00Z,0000380,00000600,0001.45,0000.02,-000.38,0000.38,-000.14,0000.22,0000.07,0000.17,0000.13,26.2,03.4,0675.6,34.6
2016-05-13T02:11:00Z,0000380,00000600,0000.14,0000.21,-000.09,0000.55,0000.11,0000.08,0000.19,0000.05,0000.11,26.2,03.4,0675.6,34.6
2016-05-13T02:12:00Z,0000380,00000600,0000.21,0000.12,-000.07,0000.20,0000.17,0000.11,0000.13,0000.25,-000.22,26.2,03.4,0675.6,34.6
2016-05-13T02:13:00Z,0000380,00000600,0000.44,0000.72,-000.11,0000.58,-000.12,0000.06,-000.17,-000.06,0000.22,26.2,03.4,0675.6,34.6
2016-05-13T02:14:00Z,0000380,00000600,0000.29,0000.30,-000.15,-000.23,-000.40,0000.14,0000.11,0000.04,-000.14,26.2,03.5,0675.6,34.6
2016-05-13T02:15:00Z,0000380,00000600,0000.19,0000.93,0000.38,0000.14,-000.02,0000.64,0000.09,-000.01,0000.27,26.2,03.5,0675.6,34.6
2016-05-13T02:16:00Z,0000380,00000600,0000.72,0000.87,-000.04,-000.14,0000.03,0000.02,0000.08,0000.09,0000.03,26.2,03.5,0675.6,34.6
2016-05-13T02:17:00Z,0000380,00000600,0000.80,0000.34,-000.11,0000.16,0000.11,0000.23,0000.13,-000.08,0000.01,26.2,03.4,0675.6,34.6
2016-05-13T02:18:00Z,0000380,00000600,-000.07,-000.51,0000.08,-000.30,-000.26,0000.00,-000.03,0000.04,-000.03,26.2,03.4,0675.6,34.6
2016-05-13T02:19:00Z,0000380,00000600,-000.17,0000.15,-000.18,0000.38,-000.03,0000.02,0000.13,0000.18,-000.02,26.2,03.5,0675.6,34.6
2016-05-13T02:20:00Z,0000380,00000600,0000.72,0000.18,-000.36,0000.20,0000.08,0000.06,-000.07,-000.15,0000.05,26.2,03.5,0675.6,34.6
2016-05-13T02:21:00Z,0000380,00000600,0000.58,0000.83,0000.05,0000.14,-000.26,0000.17,0000.12,0000.19,-000.15,26.2,03.4,0675.6,34.6
2016-05-13T02:22:00Z,0000380,00000600,0000.45,0000.41,0000.24,0000.06,0000.05,0000.09,-000.04,-000.10,0000.06,26.2,03.4,0675.6,34.6
2016-05-13T02:23:00Z,0000380,00000600,-000.12,0000.37,0000.19,-000.13,-000.12,0000.14,0000.04,0000.09,-000.01,26.2,03.5,0675.6,34.6
2016-05-13T02:24:00Z,0000380,00000600,-000.21,-000.19,-000.39,0000.09,-000.56,-000.14,0000.05,0000.05,0000.29,26.2,03.4,0675.6,34.6
2016-05-13T02:25:00Z,0000380,00000600,0000.50,0000.27,0000.05,-000.31,0000.12,-000.03,0000.02,0000.03,0000.07,26.2,03.4,0675.6,34.6
2016-05-13T02:26:00Z,0000380,00000600,0000.95,0000.45,-000.37,-000.52,-000.36,0000.31,0000.12,-000.05,-000.40,26.2,03.4,0675.6,34.6
2016-05-13T02:27:00Z,0000380,00000600,0000.93,0000.76,-000.23,0000.59,-000.03,0000.08,-000.20,-000.00,0000.18,26.2,03.3,0675.6,34.6
2016-05-13T02:28:00Z,0000380,00000600,-000.25,-000.27,-000.16,0000.39,-000.19,-000.03,0000.12,0000.17,0000.20,26.2,03.4,0675.6,34.6
2016-05-13T02:29:00Z,0000380,00000600,0000.90,0000.43,-000.20,0000.20,0000.16,0000.28,-000.03,-000.07,-000.08,26.2,03.4,0675.6,34.6
2016-05-13T02:30:00Z,0000380,00000600,0000.07,0000.27,-000.34,-000.20,-000.30,0000.11,0000.02,0000.20,0000.03,26.2,03.3,0675.6,34.7
2016-05-13T02:31:00Z,0000380,00000600,0001.24,0000.36,-000.43,0000.08,-000.11,0000.16,0000.13,0000.09,0000.06,26.2,03.4,0675.6,34.7
2016-05-13T02:32:00Z,0000380,00000600,0000.31,0000.11,-000.24,0000.16,-000.30,-000.02,0000.12,-000.06,0000.09,26.2,03.4,0675.6,34.7
2016-05-13T02:33:00Z,0000380,00000600,0000.37,0000.34,-000.07,0000.39,-000.37,0000.25,0000.00,0000.02,-000.14,26.2,03.3,0675.6,34.7
2016-05-13T02:34:00Z,0000380,00000600,0000.99,-000.04,0000.10,-000.42,-000.09,-000.19,0000.16,0000.02,0000.20,26.2,03.3,0675.6,34.7
2016-05-13T02:35:00Z,0000380,00000600,0000.39,-000.11,0000.09,-000.20,-000.23,0000.19,-000.11,0000.01,-000.03,26.2,03.3,0675.6,34.7
2016-05-13T02:36:00Z,0000380,00000600,0000.80,0000.42,0000.16,-000.25,-000.16,0000.16,0000.09,0000.08,0000.13,26.2,03.2,0675.6,34.7
2016-05-13T02:37:00Z,0000380,00000600,0000.21,0000.35,-000.13,-000.06,-000.53,0000.19,0000.00,0000.06,-000.28,26.2,03.3,0675.6,34.7
2016-05-13T02:38:00Z,0000380,00000600,0000.63,-000.29,0000.16,-000.11,0000.12,0000.05,0000.06,0000.10,0000.07,26.2,03.3,0675.6,34.7
2016-05-13T02:39:00Z,0000380,00000600,0000.14,0000.59,-000.16,-000.13,-000.30,0000.13,-000.01,-000.04,0000.07,26.2,03.4,0675.6,34.7
2016-05-13T02:40:00Z,0000380,00000600,0000.60,0000.04,-000.32,0000.00,-000.36,0000.00,0000.16,-000.05,0000.21,26.2,03.4,0675.6,34.7
2016-05-13T02:41:00Z,0000380,00000600,-000.25,0000.15,0000.20,0000.50,0000.02,0000.00,0000.04,0000.13,0000.07,26.2,03.4,0675.6,34.7
2016-05-13T02:42:00Z,0000380,00000600,0000.69,0000.58,0000.30,0000.03,-000.16,0000.39,-000.15,-000.04,0000.04,26.2,03.4,0675.6,34.7
2016-05-13T02:43:00Z,0000380,00000600,0000.10,-000.16,-000.29,0000.00,-000.12,-000.08,0000.27,0000.20,-000.08,26.2,03.4,0675.6,34.7
2016-05-13T02:44:00Z,0000380,00000600,0000.59,0000.39,0000.18,-000.38,-000.33,0000.47,-000.01,-000.05,0000.12,26.2,03.3,0675.5,34.7
2016-05-13T02:45:00Z,0000380,00000600,0000.96,0000.20,-000.19,0000.09,0000.03,0000.19,0000.08,-000.00,-000.16,26.2,03.3,0675.6,34.7
2016-05-13T02:46:00Z,0000380,00000600,0000.54,0000.85,-000.26,-000.70,-000.11,0000.25,0000.13,0000.21,0000.23,26.2,03.3,0675.6,34.7
2016-05-13T02:47:00Z,0000380,00000600,-000.30,0000.39,0000.17,0000.14,-000.11,0000.36,0000.19,-000.07,-000.20,26.2,03.4,0675.6,34.7
2016-05-13T02:48:00Z,0000380,00000600,0000.55,0000.66,-000.32,-000.20,-000.11,-000.06,-000.02,0000.21,0000.44,26.2,03.3,0675.5,34.7
2016-05-13T02:49:00Z,0000380,00000600,0000.47,0000.95,-000.06,-000.09,-000.02,0000.28,0000.04,-000.09,-000.27,26.2,03.4,0675.5,34.7
2016-05-13T02:50:00Z,0000380,00000600,0000.11,0000.92,-000.25,-000.28,-000.05,0000.06,0000.10,0000.12,0000.22,26.2,03.3,0675.5,34.7
2016-05-13T02:51:00Z,0000380,00000600,0000.24,0000.28,-000.44,0000.16,-000.14,0000.13,0000.13,-000.15,-000.40,26.2,03.2,0675.5,34.7
2016-05-13T02:52:00Z,0000380,00000600,0000.18,0000.77,0000.00,-000.34,-000.06,0000.22,-000.09,0000.07,0000.03,26.2,03.3,0675.5,34.7
2016-05-13T02:53:00Z,0000380,00000600,0000.31,0000.59,-000.64,-000.25,-000.30,0000.20,0000.19,0000.11,0000.42,26.2,03.2,0675.5,34.7
2016-05-13T02:54:00Z,0000380,00000600,-000.20,0001.12,0000.11,0000.70,0000.08,0000.14,-000.33,-000.05,-000.06,26.2,03.1,0675.5,34.7
2016-05-13T02:55:00Z,0000380,00000600,0000.86,0000.04,-000.23,-000.08,-000.26,-000.02,0000.21,-000.05,-000.11,26.2,03.1,0675.5,34.7
2016-05-13T02:56:00Z,0000380,00000600,0000.06,-000.23,0000.24,-000.17,-000.06,0000.42,-000.24,0000.12,0000.02,26.2,03.1,0675.5,34.7
2016-05-13T02:57:00Z,0000380,40000600,,,,,,,,,,,,0675.3,34.7
2016-05-13T02:58:00Z,0000380,60000600,,,,,,,,,,26.0,03.1,0674.6,34.7
2016-05-13T02:59:00Z,0000380,20000600,,,,,,,,,,26.0,03.1,0674.6,34.7
2016-05-13T03:00:00Z,0000380,20000600,,,,,,,,,,26.0,03.1,0674.5,34.6
2016-05-13T03:01:00Z,0000380,20000600,,,,,,,,,,26.0,03.1,0674.5,34.6
2016-05-13T03:02:00Z,0000380,20000600,,,,,,,,,,26.0,03.1,0674.5,34.6
2016-05-13T03:03:00Z,0000380,60000600,,,,,,,,,,26.1,03.1,0674.5,34.6
2016-05-13T03:04:00Z,0000380,40000600,-000.13,0000.18,0000.04,0000.34,0000.00,-000.19,0000.05,-000.04,0000.12,26.2,03.0,0675.3,34.6
2016-05-13T03:05:00Z,0000380,00000600,0000.82,0000.12,0000.41,0000.39,-000.12,0000.14,-000.08,0000.15,0000.11,26.2,03.0,0675.4,34.6
2016-05-13T03:06:00Z,0000380,00000600,0000.31,0001.10,-000.09,0000.42,-000.22,0000.11,0000.29,-000.11,-000.09,26.2,03.0,0675.4,34.6
2016-05-13T03:07:00Z,0000380,00000600,-000.08,0000.35,-000.08,0000.58,0000.19,0000.08,0000.24,0000.12,-000.01,26.2,03.0,0675.4,34.6
2016-05-13T03:08:00Z,0000380,00000600,0000.58,0000.28,-000.10,0000.42,-000.08,-000.14,-000.06,-000.06,0000.55,26.2,03.0,0675.4,34.6
2016-05-13T03:09:00Z,0000380,00000600,-000.60,-000.09,0000.42,0000.48,0000.08,-000.17,0000.03,0000.04,-000.37,26.2,02.9,0675.4,34.6
2016-05-13T03:10:00Z,0000380,00000600,0000.76,0000.51,-000.06,0000.28,0000.00,0000.14,-000.00,-000.01,0000.06,26.2,02.9,0675.3,34.6
2016-05-13T03:11:00Z,0000380,00000600,0000.02,0000.39,0000.26,0001.03,0000.06,0000.25,-000.00,0000.15,0000.08,26.2,02.9,0675.3,34.6
2016-05-13T03:12:00Z,0000380,00000600,-000.02,0000.17,-000.14,0000.25,0000.08,-000.06,0000.08,-000.10,0000.11,26.2,02.9,0675.3,34.6